1500768000.98,50595,22.31,74408.8,7.59,-5.43,-10.01,0,*48
1500768002.2,50596,22.31,74410.5,7.57,-5.47,-10.09,0,*49
1500768003.42,50597,22.31,74408.3,7.57,-5.47,-10.09,0,*48
1500768004.64,50598,22.31,74410.0,7.57,-5.39,-10.09,0,*4E
1500768005.85,50599,22.31,74406.8,7.57,-5.35,-9.93,0,*78
1500768007.09,50600,22.31,74408.0,7.57,-5.27,-10.05,0,*4F
1500768008.34,50601,22.31,74406.5,7.57,-5.23,-10.09,0,*46
1500768009.56,50602,22.31,74406.3,7.57,-5.35,-10.05,0,*4E
1500768010.8,50603,22.31,74406.5,7.57,-5.27,-10.09,0,*40
1500768012.05,50604,22.31,74408.8,7.57,-5.27,-10.19,0,*46
1500768013.28,50605,22.31,74406.3,7.57,-5.35,-10.19,0,*44
1500768014.49,50606,22.31,74404.5,7.57,-5.35,-10.09,0,*46
1500768015.72,50607,22.31,74404.0,7.57,-5.39,-10.19,0,*4A
1500768016.94,50608,22.31,74408.8,7.57,-5.39,-10.23,0,*4C
1500768018.16,50609,22.31,74404.3,7.57,-5.35,-10.23,0,*41
1500768019.37,50610,22.31,74402.8,7.57,-5.35,-10.23,0,*49
1500768020.59,50611,22.31,74406.3,7.57,-5.35,-10.23,0,*48
1500768021.81,50612,22.31,74406.3,7.57,-5.35,-10.23,0,*4B
1500768023.01,50613,22.31,74410.0,7.55,-5.35,-10.23,0,*48
1500768024.23,50614,22.31,74408.3,7.57,-5.35,-10.23,0,*4D
1500768025.44,50615,22.31,74404.8,7.57,-5.35,-10.23,0,*4C
1500768026.69,50616,22.31,74410.3,7.57,-5.23,-10.23,0,*48
1500768027.94,50617,22.31,74408.8,7.57,-5.27,-10.23,0,*4D
1500768029.19,50618,22.31,74408.0,7.57,-5.23,-10.27,0,*42
1500768030.42,50619,22.31,74410.5,7.55,-5.31,-10.35,0,*41
1500768031.64,50620,22.31,74410.0,7.57,-5.35,-10.31,0,*49
1500768032.85,50621,22.31,74408.8,7.55,-5.43,-10.35,0,*4F
1500768034.07,50622,22.31,74412.3,7.57,-5.35,-10.35,0,*4F
1500768035.3,50623,22.31,74410.8,7.55,-5.39,-10.41,0,*43
1500768036.55,50624,22.31,74410.0,7.55,-5.27,-10.41,0,*4B
1500768037.78,50625,22.31,74410.3,7.55,-5.27,-10.35,0,*49
1500768039.03,50626,22.31,74410.0,7.57,-5.27,-10.31,0,*4C
1500768040.26,50627,22.31,74406.8,7.55,-5.27,-10.35,0,*4B
1500768041.51,50628,22.31,74410.5,7.57,-5.27,-10.23,0,*41
1500768042.74,50629,22.31,74408.0,7.55,-5.27,-10.27,0,*46
1500768043.96,50630,22.31,74410.3,7.55,-5.27,-10.27,0,*4E
1500768045.2,50631,22.31,74410.0,7.55,-5.27,-10.27,0,*4F
1500768046.42,50632,22.31,74408.3,7.55,-5.19,-10.27,0,*41
1500768047.67,50633,22.31,74408.5,7.57,-5.15,-10.23,0,*4A
1500768048.9,50634,22.31,74410.5,7.55,-5.19,-10.27,0,*47
1500768050.13,50635,22.31,74406.8,7.55,-5.19,-10.27,0,*46
1500768051.36,50636,22.31,74410.8,7.55,-5.19,-10.27,0,*45
1500768052.59,50637,22.31,74414.8,7.55,-5.19,-10.35,0,*47
1500768053.82,50638,22.31,74408.8,7.55,-5.15,-10.27,0,*47
1500768055.05,50639,22.31,74410.5,7.55,-4.93,-10.15,0,*48
1500768056.28,50640,22.31,74410.5,7.55,-5.07,-10.15,0,*4A
1500768057.49,50641,22.31,74408.8,7.57,-4.99,-10.23,0,*4A
1500768058.72,50642,22.31,74410.8,7.55,-5.03,-10.23,0,*49
1500768059.94,50643,22.31,74410.5,7.55,-5.03,-10.23,0,*48
1500768061.17,50644,22.31,74408.3,7.55,-5.07,-10.23,0,*4B
1500768062.4,50645,22.31,74408.8,7.55,-5.07,-10.23,0,*4A
1500768063.63,50646,22.31,74406.3,7.55,-5.07,-10.23,0,*49
1500768064.84,50647,22.31,74408.8,7.57,-4.99,-10.23,0,*4C
1500768066.06,50648,22.31,74404.8,7.55,-4.81,-10.15,0,*4D
1500768067.3,50649,22.31,74406.8,7.57,-4.73,-10.09,0,*4E
1500768068.53,50650,22.31,74402.0,7.57,-4.77,-9.93,0,*79
1500768069.77,50651,22.31,74406.5,7.57,-4.73,-10.05,0,*4B
1500768070.99,50652,22.31,74404.0,7.55,-4.81,-10.09,0,*4B
1500768072.23,50653,22.31,74402.0,7.57,-4.73,-10.05,0,*49
1500768073.46,50654,22.31,74400.0,7.57,-4.69,-10.05,0,*45
1500768074.69,50655,22.31,74404.8,7.57,-4.69,-9.97,0,*77
1500768075.93,50656,22.31,74402.8,7.57,-4.69,-10.05,0,*47
1500768077.15,50657,22.31,74400.8,7.55,-4.73,-10.09,0,*43
1500768078.39,50658,22.31,74402.8,7.57,-4.73,-10.09,0,*4E
1500768079.63,50659,22.31,74402.8,7.57,-4.77,-10.19,0,*4A
1500768080.84,50660,22.31,74404.8,7.55,-4.77,-10.23,0,*4B
1500768082.06,50661,22.31,74400.8,7.55,-4.81,-10.23,0,*43
1500768083.28,50662,22.31,74404.0,7.55,-4.81,-10.23,0,*40
1500768084.53,50663,22.31,74406.3,7.57,-4.73,-10.19,0,*47
1500768085.76,50664,22.31,74404.0,7.57,-4.69,-10.09,0,*4A
1500768086.98,50665,22.31,74406.8,7.55,-4.73,-10.23,0,*4A
1500768088.23,50666,22.31,74404.0,7.57,-4.73,-10.19,0,*42
1500768089.47,50667,22.31,74404.0,7.57,-4.69,-10.19,0,*48
1500768090.71,50668,22.31,74406.5,7.57,-4.73,-10.19,0,*4C
1500768091.96,50669,22.31,74404.8,7.57,-4.77,-10.19,0,*49
1500768093.18,50670,22.31,74404.5,7.57,-4.61,-10.19,0,*46
1500768094.4,50671,22.31,74408.5,7.57,-4.61,-10.19,0,*47
1500768095.63,50672,22.31,74404.5,7.57,-4.61,-10.19,0,*44
1500768096.87,50673,22.31,74406.5,7.57,-4.69,-10.19,0,*4D
1500768098.11,50674,22.31,74406.0,7.57,-4.69,-10.19,0,*4A
1500768099.36,50675,22.31,74404.5,7.57,-4.69,-10.19,0,*4B
1500768100.58,50676,22.31,74404.5,7.57,-4.61,-10.19,0,*40
1500768101.8,50677,22.31,74406.5,7.57,-4.49,-10.19,0,*4B
1500768103.03,50678,22.31,74404.5,7.57,-4.61,-10.19,0,*4E
1500768104.25,50679,22.31,74406.8,7.57,-4.57,-10.19,0,*4A
1500768105.48,50680,22.31,74404.8,7.57,-4.61,-10.19,0,*49
1500768106.7,50681,22.31,74406.3,7.57,-4.61,-10.19,0,*48
1500768107.9,50682,22.31,74406.0,7.55,-4.53,-10.23,0,*41
1500768109.1,50683,22.31,74408.5,7.55,-4.53,-10.15,0,*45
1500768110.33,50684,22.31,74406.3,7.57,-4.57,-10.19,0,*48
1500768111.52,50685,22.31,74404.8,7.55,-4.53,-10.23,0,*46
1500768112.72,50686,22.31,74404.8,7.55,-4.61,-10.23,0,*44
1500768113.94,50687,22.31,74404.0,7.57,-4.57,-10.23,0,*42
1500768115.16,50688,22.31,74404.3,7.57,-4.57,-10.09,0,*45
1500768116.36,50689,22.31,74402.5,7.55,-4.53,-10.15,0,*4F
1500768117.58,50690,22.31,74406.3,7.57,-4.49,-10.19,0,*42
1500768118.78,50691,22.31,74406.5,7.55,-4.53,-10.15,0,*46
1500768120.0,50692,22.31,74404.5,7.57,-4.49,-10.05,0,*4D
1500768121.2,50693,22.31,74406.8,7.55,-4.49,-10.01,0,*4A
1500768122.39,50694,22.31,74406.0,7.55,-4.49,-10.09,0,*45
1500768123.6,50695,22.31,74402.5,7.57,-4.45,-10.05,0,*46
1500768124.8,50696,22.31,74404.8,7.55,-4.49,-10.15,0,*4A
1500768126.02,50697,22.31,74400.8,7.57,-4.45,-10.19,0,*49
1500768127.23,50698,22.31,74406.3,7.57,-4.45,-10.09,0,*47
1500768128.45,50699,22.31,74402.0,7.57,-4.45,-10.19,0,*47
1500768129.64,50700,22.31,74400.5,7.55,-4.49,-10.23,0,*41
1500768130.84,50701,22.31,74406.8,7.55,-4.49,-10.23,0,*40
1500768132.05,50702,22.31,74404.8,7.57,-4.45,-10.19,0,*44
1500768133.26,50703,22.31,74404.0,7.57,-4.45,-10.09,0,*44
1500768134.47,50704,22.31,74400.8,7.55,-4.61,-10.15,0,*4A
1500768135.67,50705,22.31,74400.3,7.55,-4.53,-10.15,0,*4A
1500768136.88,50706,22.31,74398.8,7.57,-4.45,-10.09,0,*41
1500768138.08,50707,22.31,74400.8,7.55,-4.41,-10.09,0,*46
1500768139.28,50708,22.31,74400.0,7.55,-4.37,-10.01,0,*40
1500768140.5,50709,22.25,74400.3,7.57,-4.13,-10.05,0,*41
1500768141.7,50710,22.31,74400.3,7.55,-4.37,-10.01,0,*49
1500768142.9,50711,22.31,74402.8,7.57,-4.37,-9.97,0,*7D
1500768144.13,50712,22.31,74400.3,7.57,-4.25,-10.05,0,*4E
1500768145.32,50713,22.31,74400.5,7.55,-4.25,-9.97,0,*7E
1500768146.52,50714,22.31,74402.0,7.55,-4.37,-10.09,0,*45
1500768147.71,50715,22.31,74400.3,7.55,-4.37,-10.23,0,*4C
1500768148.93,50716,22.31,74402.3,7.57,-4.45,-10.19,0,*41
1500768150.15,50717,22.31,74400.0,7.57,-4.37,-10.19,0,*45
1500768151.37,50718,22.31,74402.3,7.57,-4.45,-10.19,0,*4F
1500768152.56,50719,22.31,74402.3,7.55,-4.37,-10.09,0,*48
1500768153.76,50720,22.31,74402.8,7.55,-4.37,-10.01,0,*4A
1500768154.96,50721,22.31,74400.0,7.55,-4.29,-10.23,0,*44
1500768156.17,50722,22.31,74404.8,7.55,-4.29,-10.15,0,*42
1500768157.37,50723,22.31,74400.8,7.55,-4.29,-10.09,0,*4E
1500768158.57,50724,22.31,74398.8,7.55,-4.25,-10.09,0,*45
1500768159.77,50725,22.31,74396.3,7.55,-4.25,-9.79,0,*7B
1500768160.99,50726,22.31,74398.5,7.55,-4.13,-9.83,0,*78
1500768162.18,50727,22.31,74396.8,7.55,-4.13,-9.93,0,*78
1500768163.38,50728,22.31,74398.8,7.55,-4.13,-9.97,0,*73
1500768164.57,50729,22.31,74402.5,7.55,-4.17,-9.93,0,*72
1500768165.78,50730,22.31,74404.0,7.57,-4.09,-9.89,0,*7C
1500768166.98,50731,22.31,74402.3,7.55,-4.09,-9.93,0,*74
1500768168.17,50732,22.25,74396.5,7.55,-4.13,-9.97,0,*78
1500768169.39,50733,22.31,74402.8,7.57,-4.09,-9.93,0,*74
1500768170.63,50734,22.31,74402.0,7.57,-4.01,-9.93,0,*7B
1500768171.86,50735,22.31,74404.5,7.55,-4.01,-9.67,0,*73
1500768173.11,50736,22.31,74402.0,7.57,-3.91,-9.61,0,*7A
1500768174.33,50737,22.31,74400.5,7.57,-3.91,-9.75,0,*7E
1500768175.58,50738,22.31,74400.0,7.55,-4.01,-9.83,0,*74
1500768176.8,50739,22.31,74402.8,7.55,-3.95,-9.83,0,*7F
1500768178.01,50740,22.31,74402.3,7.55,-3.83,-9.71,0,*7B
1500768179.25,50741,22.25,74398.5,7.57,-3.79,-9.61,0,*7C
1500768180.46,50742,22.31,74398.0,7.55,-3.83,-9.71,0,*79
1500768181.68,50743,22.31,74396.3,7.57,-3.91,-9.75,0,*7D
1500768182.88,50744,22.31,74398.3,7.55,-3.87,-9.67,0,*7C
1500768184.13,50745,22.31,74398.8,7.57,-3.83,-9.53,0,*7C
1500768185.35,50746,22.31,74400.5,7.57,-3.95,-9.79,0,*70
1500768186.57,50747,22.31,74404.0,7.57,-3.83,-9.79,0,*76
1500768187.79,50748,22.31,74402.8,7.55,-3.87,-9.83,0,*7A
1500768189.01,50749,22.25,74400.3,7.57,-3.83,-9.75,0,*74
1500768190.24,50750,22.31,74402.3,7.57,-3.79,-9.67,0,*7A
1500768191.43,50751,22.25,74402.3,7.55,-3.87,-9.79,0,*77
1500768192.66,50752,22.31,74402.8,7.57,-3.83,-9.75,0,*7E
1500768193.88,50753,22.31,74400.5,7.57,-3.83,-9.89,0,*7C
1500768195.1,50754,22.25,74402.3,7.57,-3.95,-9.93,0,*77
1500768196.32,50755,22.31,74404.5,7.57,-3.91,-9.79,0,*76
1500768197.54,50756,22.31,74406.5,7.57,-3.79,-9.75,0,*7F
1500768198.8,50757,22.31,74404.3,7.57,-3.79,-9.53,0,*7A
1500768200.02,50758,22.31,74406.0,7.57,-3.91,-9.89,0,*74
1500768201.26,50759,22.31,74400.5,7.57,-4.01,-9.93,0,*70
1500768202.48,50760,22.31,74402.0,7.57,-3.95,-9.93,0,*70
1500768203.69,50761,22.25,74402.3,7.55,-3.95,-9.79,0,*77
1500768204.91,50762,22.31,74406.8,7.57,-3.91,-9.89,0,*7D
1500768206.1,50763,22.31,74398.5,7.59,-3.91,-9.89,0,*72
1500768207.31,50764,22.31,74400.5,7.59,-4.05,-10.01,0,*47
1500768208.51,50765,22.31,74406.5,7.59,-3.95,-10.01,0,*48
1500768209.71,50766,22.31,74406.5,7.59,-3.91,-9.89,0,*77
1500768210.91,50767,22.31,74402.3,7.59,-3.95,-9.93,0,*79
1500768212.11,50768,22.31,74400.3,7.59,-4.05,-10.15,0,*4E
1500768213.31,50769,22.31,74400.3,7.59,-4.05,-10.01,0,*4A
1500768214.5,50770,22.31,74402.3,7.59,-4.05,-10.05,0,*46
1500768215.71,50771,22.31,74400.3,7.59,-3.95,-10.01,0,*4D
1500768216.96,50772,22.31,74398.0,7.57,-4.01,-10.09,0,*42
1500768218.17,50773,22.31,74402.0,7.57,-4.09,-9.97,0,*74
1500768219.37,50774,22.31,74404.0,7.59,-4.09,-10.05,0,*4E
1500768220.57,50775,22.31,74402.8,7.59,-3.95,-10.01,0,*49
1500768221.79,50776,22.31,74398.5,7.59,-3.87,-9.83,0,*7B
1500768222.99,50777,22.25,74396.8,7.59,-3.91,-9.89,0,*77
1500768224.18,50778,22.31,74400.5,7.59,-3.87,-9.75,0,*7C
1500768225.37,50779,22.31,74404.8,7.59,-3.87,-9.93,0,*75
1500768226.59,50780,22.31,74400.5,7.61,-3.87,-9.89,0,*73
1500768227.8,50781,22.31,74400.3,7.59,-3.91,-10.01,0,*46
1500768229.03,50782,22.31,74402.0,7.61,-3.91,-9.93,0,*7D
1500768230.25,50783,22.31,74402.8,7.61,-3.95,-9.93,0,*78
1500768231.48,50784,22.31,74404.0,7.61,-4.17,-10.05,0,*45
1500768232.7,50785,22.31,74402.0,7.63,-4.01,-9.67,0,*7D
1500768233.91,50786,22.25,74396.8,7.61,-4.05,-9.93,0,*73
1500768235.14,50787,22.31,74402.3,7.61,-3.95,-9.93,0,*7C
1500768236.37,50788,22.31,74404.5,7.61,-4.09,-10.15,0,*47
1500768237.6,50789,22.31,74400.0,7.61,-4.29,-10.27,0,*45
1500768238.85,50790,22.31,74402.3,7.61,-4.29,-10.41,0,*4D
1500768240.08,50791,22.31,74400.5,7.61,-4.29,-10.19,0,*41
1500768241.31,50792,22.25,74402.0,7.61,-4.21,-10.19,0,*4A
1500768242.52,50793,22.31,74402.5,7.59,-4.21,-10.27,0,*4D
1500768243.76,50794,22.31,74406.5,7.61,-4.21,-10.15,0,*40
1500768244.95,50795,22.31,74406.3,7.63,-4.37,-10.35,0,*46
1500768246.15,50796,22.25,74402.8,7.63,-4.29,-10.27,0,*49
1500768247.36,50797,22.31,74404.5,7.63,-4.25,-10.35,0,*47
1500768248.56,50798,22.25,74394.8,7.63,-4.29,-10.35,0,*44
1500768249.78,50799,22.31,74398.8,7.65,-4.13,-10.27,0,*49
1500768250.97,50800,22.31,74398.8,7.63,-4.17,-10.09,0,*48
1500768252.17,50801,22.31,74398.0,7.63,-4.25,-10.15,0,*45
1500768253.37,50802,22.25,74398.5,7.63,-4.17,-10.27,0,*46
1500768254.6,50803,22.31,74396.3,7.65,-4.25,-10.35,0,*43
1500768255.83,50804,22.25,74392.8,7.65,-4.25,-10.35,0,*44
1500768257.05,50805,22.31,74402.0,7.65,-4.37,-10.49,0,*4D
1500768258.27,50806,22.25,74398.5,7.65,-4.37,-10.35,0,*45
1500768259.49,50807,22.31,74392.5,7.65,-4.29,-10.49,0,*40
1500768260.74,50808,22.31,74398.0,7.65,-4.29,-10.41,0,*47
1500768261.98,50809,22.25,74398.0,7.65,-4.37,-10.63,0,*49
1500768263.17,50810,22.31,74404.0,7.67,-4.37,-10.57,0,*44
1500768264.39,50811,22.31,74402.5,7.65,-4.41,-10.49,0,*49
1500768265.61,50812,22.31,74404.5,7.65,-4.49,-10.53,0,*49
1500768266.85,50813,22.25,74400.3,7.65,-4.49,-10.67,0,*4F
1500768268.06,50814,22.31,74398.8,7.67,-4.45,-10.63,0,*42
1500768269.28,50815,22.31,74402.3,7.71,-4.45,-10.75,0,*43
1500768270.49,50816,22.31,74402.0,7.67,-4.37,-10.63,0,*45
1500768271.71,50817,22.25,74396.5,7.67,-4.37,-10.67,0,*40
1500768272.91,50818,22.25,74402.8,7.71,-4.33,-10.57,0,*4F
1500768274.09,50819,22.31,74400.5,7.67,-4.37,-10.45,0,*4E
1500768275.31,50820,22.31,74402.8,7.71,-4.45,-10.67,0,*46
1500768276.53,50821,22.25,74402.0,7.71,-4.41,-10.63,0,*47
1500768277.74,50822,22.31,74400.0,7.71,-4.45,-10.41,0,*40
1500768278.96,50823,22.25,74398.0,7.71,-4.45,-10.63,0,*41
1500768280.17,50824,22.31,74398.5,7.71,-4.45,-10.71,0,*45
1500768281.35,50825,22.31,74396.0,7.71,-4.45,-10.53,0,*44
1500768282.57,50826,22.25,74396.0,7.67,-4.45,-10.67,0,*47
1500768283.78,50827,22.31,74398.5,7.71,-4.53,-10.75,0,*45
1500768285.02,50828,22.31,74398.8,7.73,-4.53,-10.75,0,*48
1500768286.24,50829,22.31,74406.0,7.71,-4.45,-10.75,0,*4C
1500768287.42,50830,22.31,74400.0,7.71,-4.53,-10.85,0,*4C
1500768288.63,50831,22.31,74396.8,7.71,-4.45,-10.71,0,*41
1500768289.84,50832,22.31,74398.0,7.71,-4.53,-10.75,0,*41
1500768291.04,50833,22.25,74396.8,7.71,-4.57,-10.89,0,*47
1500768292.26,50834,22.31,74394.8,7.71,-4.57,-10.75,0,*43
1500768293.5,50835,22.25,74392.3,7.73,-4.53,-10.75,0,*44
1500768294.73,50836,22.25,74400.0,7.73,-4.69,-10.89,0,*4D
1500768295.96,50837,22.31,74402.0,7.73,-4.69,-10.85,0,*40
1500768297.16,50838,22.31,74404.0,7.75,-4.69,-10.85,0,*49
1500768298.4,50839,22.31,74404.3,7.73,-4.81,-10.97,0,*4B
1500768299.64,50840,22.25,74398.8,7.73,-4.81,-10.97,0,*45
1500768300.88,50841,22.25,74396.5,7.73,-4.69,-10.97,0,*42
1500768302.11,50842,22.25,74398.5,7.73,-4.73,-10.89,0,*45
1500768303.32,50843,22.25,74396.8,7.75,-4.69,-10.85,0,*45
1500768304.54,50844,22.31,74400.3,7.73,-4.69,-10.85,0,*44
1500768305.77,50845,22.31,74402.3,7.75,-4.57,-10.67,0,*42
1500768307.0,50846,22.31,74400.8,7.73,-4.81,-10.89,0,*4C
1500768308.21,50847,22.31,74400.8,7.75,-4.81,-10.93,0,*40
1500768309.42,50848,22.25,74394.5,7.75,-4.81,-10.93,0,*4F
1500768310.63,50849,22.25,74396.8,7.75,-4.77,-10.93,0,*47
1500768311.89,50850,22.25,74394.5,7.73,-4.81,-10.71,0,*4C
1500768313.16,50851,22.31,74398.5,7.77,-4.69,-10.79,0,*47
1500768314.36,50852,22.25,74392.8,7.75,-4.69,-10.85,0,*45
1500768315.57,50853,22.25,74398.0,7.75,-4.81,-10.85,0,*42
1500768316.78,50854,22.25,74396.3,7.75,-4.89,-10.93,0,*4A
1500768317.99,50855,22.25,74398.5,7.75,-4.89,-10.85,0,*4C
1500768319.21,50856,22.25,74398.8,7.75,-4.89,-10.93,0,*48
1500768320.44,50857,22.25,74400.0,7.77,-4.93,-10.93,0,*40
1500768321.69,50858,22.25,74396.3,7.77,-4.93,-10.97,0,*4B
1500768322.94,50859,22.25,74402.3,7.77,-5.03,-10.97,0,*42
1500768324.19,50860,22.25,74400.0,7.77,-5.03,-10.97,0,*48
1500768325.47,50861,22.25,74406.5,7.77,-5.03,-11.07,0,*41
1500768326.66,50862,22.25,74400.8,7.79,-4.99,-11.01,0,*48
1500768327.91,50863,22.31,74406.5,7.77,-5.07,-10.93,0,*4B
1500768329.16,50864,22.25,74404.0,7.77,-5.03,-10.93,0,*48
1500768330.34,50865,22.25,74404.3,7.79,-4.99,-10.89,0,*4E
1500768331.59,50866,22.31,74406.8,7.77,-5.03,-10.93,0,*4A
1500768332.81,50867,22.25,74400.0,7.79,-5.03,-10.89,0,*4E
1500768334.07,50868,22.25,74400.0,7.77,-5.03,-10.97,0,*40
1500768335.32,50869,22.25,74398.3,7.77,-5.03,-10.93,0,*45
1500768336.57,50870,22.25,74398.3,7.77,-5.07,-10.97,0,*4D
1500768337.82,50871,22.25,74400.5,7.77,-5.15,-10.93,0,*4B
1500768339.07,50872,22.25,74402.0,7.77,-5.07,-10.93,0,*4B
1500768340.32,50873,22.25,74402.0,7.77,-5.27,-10.97,0,*4C
1500768341.54,50874,22.31,74402.3,7.75,-5.19,-10.93,0,*40
1500768342.76,50875,22.31,74406.5,7.75,-5.15,-10.97,0,*49
1500768343.98,50876,22.31,74408.0,7.75,-5.19,-10.93,0,*42
1500768345.21,50877,22.25,74404.8,7.73,-5.11,-10.89,0,*46
1500768346.43,50878,22.31,74402.3,7.75,-5.07,-10.85,0,*44
1500768347.67,50879,22.25,74402.3,7.77,-5.15,-10.85,0,*44
1500768348.91,50880,22.25,74402.3,7.77,-5.19,-10.85,0,*4E
1500768350.12,50881,22.25,74402.8,7.75,-5.19,-10.85,0,*4D
1500768351.33,50882,22.25,74402.8,7.75,-5.19,-10.85,0,*4E
1500768352.58,50883,22.25,74400.8,7.75,-5.15,-10.79,0,*40
1500768353.82,50884,22.25,74400.3,7.75,-5.07,-10.71,0,*4C
1500768355.07,50885,22.31,74404.5,7.75,-5.15,-10.79,0,*46
1500768356.31,50886,22.25,74400.0,7.75,-5.15,-10.79,0,*45
1500768357.58,50887,22.25,74402.0,7.73,-5.23,-10.71,0,*4F
1500768358.82,50888,22.25,74402.3,7.75,-5.15,-10.71,0,*43
1500768360.07,50889,22.25,74400.5,7.75,-5.15,-10.67,0,*45
1500768361.29,50890,22.25,74400.8,7.75,-5.15,-10.57,0,*4E
1500768362.51,50891,22.25,74400.5,7.75,-5.15,-10.57,0,*4F
1500768363.73,50892,22.31,74404.0,7.75,-5.15,-10.57,0,*4C
1500768364.95,50893,22.25,74404.8,7.75,-5.15,-10.57,0,*4D
1500768366.18,50894,22.25,74402.3,7.75,-5.07,-10.57,0,*49
1500768367.4,50895,22.25,74400.5,7.75,-5.03,-10.57,0,*4C
1500768368.63,50896,22.25,74398.8,7.73,-5.11,-10.53,0,*4E
1500768369.88,50897,22.25,74400.3,7.73,-5.23,-10.57,0,*4A
1500768371.1,50898,22.25,74402.3,7.75,-5.03,-10.27,0,*46
1500768372.32,50899,22.25,74398.8,7.75,-5.03,-10.49,0,*4F
1500768373.55,50900,22.25,74394.0,7.75,-5.03,-10.27,0,*46
1500768374.77,50901,22.25,74392.5,7.75,-5.03,-10.27,0,*47
1500768375.99,50902,22.25,74396.8,7.75,-4.89,-10.15,0,*46
1500768377.21,50903,22.25,74394.5,7.75,-4.93,-10.15,0,*4C
1500768378.42,50904,22.25,74396.0,7.75,-4.93,-10.23,0,*4E
1500768379.64,50905,22.25,74398.8,7.75,-5.07,-10.35,0,*44
1500768380.87,50906,22.25,74396.3,7.75,-5.07,-10.27,0,*44
1500768382.08,50907,22.25,74396.5,7.75,-4.93,-10.15,0,*48
1500768383.32,50908,22.25,74398.8,7.73,-5.11,-10.31,0,*4C
1500768384.54,50909,22.25,74402.3,7.75,-4.93,-10.15,0,*46
1500768385.76,50910,22.25,74398.3,7.75,-5.03,-10.01,0,*43
1500768386.99,50911,22.31,74404.3,7.75,-5.03,-10.01,0,*42
1500768388.21,50912,22.25,74394.3,7.75,-4.89,-10.01,0,*42
1500768389.46,50913,22.31,74402.8,7.77,-5.03,-10.09,0,*4A
1500768390.71,50914,22.31,74398.5,7.77,-5.03,-10.01,0,*45
1500768391.95,50915,22.25,74398.0,7.77,-5.03,-9.97,0,*73
1500768393.21,50916,22.25,74394.5,7.77,-5.07,-10.01,0,*43
1500768394.46,50917,22.25,74398.0,7.77,-5.07,-10.01,0,*42
1500768395.72,50918,22.31,74402.0,7.77,-5.07,-10.01,0,*4D
1500768396.96,50919,22.25,74396.5,7.77,-5.03,-9.97,0,*7F
1500768398.2,50920,22.25,74396.3,7.77,-5.03,-9.89,0,*7A
1500768399.45,50921,22.25,74400.0,7.77,-5.03,-9.97,0,*74
1500768400.69,50922,22.25,74398.3,7.77,-5.03,-9.89,0,*78
1500768401.9,50923,22.25,74398.3,7.75,-5.03,-9.75,0,*78
1500768403.13,50924,22.25,74396.3,7.75,-4.93,-9.83,0,*7E
1500768404.34,50925,22.25,74398.5,7.75,-5.07,-9.97,0,*76
1500768405.59,50926,22.25,74396.8,7.77,-5.03,-9.75,0,*7F
1500768406.83,50927,22.25,74396.0,7.77,-4.89,-9.67,0,*7E
1500768408.07,50928,22.25,74398.3,7.77,-5.03,-9.75,0,*71
1500768409.31,50929,22.25,74398.5,7.77,-4.93,-9.71,0,*7C
1500768410.57,50930,22.25,74394.0,7.77,-4.81,-9.53,0,*77
1500768411.81,50931,22.25,74392.3,7.77,-4.93,-9.71,0,*75
1500768413.04,50932,22.25,74392.3,7.77,-4.93,-9.67,0,*71
1500768414.3,50933,22.25,74388.8,7.77,-4.81,-9.45,0,*73
1500768415.53,50934,22.25,74394.8,7.77,-4.77,-9.31,0,*7E
1500768416.75,50935,22.31,74398.0,7.77,-4.77,-9.31,0,*7F
1500768418.01,50936,22.25,74390.3,7.77,-4.77,-9.41,0,*7B
1500768419.22,50937,22.25,74394.5,7.77,-4.65,-9.19,0,*74
1500768420.45,50938,22.25,74394.3,7.77,-4.77,-9.31,0,*72
1500768421.63,50939,22.25,74398.8,7.79,-4.65,-9.23,0,*7D
1500768422.86,50940,22.25,74398.0,7.79,-4.77,-9.37,0,*75
1500768424.04,50941,22.25,74394.0,7.79,-4.61,-9.19,0,*7F
1500768425.22,50942,22.31,74392.5,7.79,-4.61,-9.19,0,*7C
1500768426.43,50943,22.31,74394.3,7.79,-4.65,-9.15,0,*75
1500768427.63,50944,22.25,74392.0,7.79,-4.77,-9.27,0,*70
1500768428.86,50945,22.25,74396.8,7.77,-4.89,-9.31,0,*79
1500768430.09,50946,22.25,74396.8,7.79,-4.85,-9.37,0,*7E
1500768431.3,50947,22.25,74398.8,7.79,-4.77,-9.27,0,*73
1500768432.5,50948,22.25,74398.8,7.79,-4.73,-9.23,0,*7C
1500768433.7,50949,22.31,74398.0,7.79,-4.73,-9.27,0,*79
1500768434.94,50950,22.25,74398.3,7.77,-4.81,-9.27,0,*72
1500768436.17,50951,22.25,74396.8,7.77,-4.77,-9.31,0,*7D
1500768437.4,50952,22.25,74396.5,7.77,-4.77,-9.27,0,*79
1500768438.62,50953,22.25,74396.8,7.77,-4.77,-9.31,0,*7F
1500768439.83,50954,22.25,74400.0,7.79,-4.61,-9.15,0,*77
1500768441.06,50955,22.25,74398.0,7.77,-4.53,-9.15,0,*79
1500768442.3,50956,22.25,74398.3,7.77,-4.53,-9.15,0,*7A
1500768443.51,50957,22.25,74398.5,7.77,-4.57,-9.19,0,*73
1500768444.72,50958,22.25,74396.8,7.79,-4.53,-9.11,0,*7E
1500768445.9,50959,22.25,74392.8,7.79,-4.53,-9.19,0,*77
1500768447.12,50960,22.25,74398.0,7.77,-4.57,-9.19,0,*77
1500768448.33,50961,22.25,74396.3,7.77,-4.65,-9.19,0,*77
1500768449.53,50962,22.25,74398.5,7.79,-4.49,-9.11,0,*7C
1500768450.72,50963,22.25,74398.8,7.79,-4.57,-9.19,0,*7A
1500768451.93,50964,22.25,74398.3,7.77,-4.53,-9.27,0,*7A
1500768453.14,50965,22.25,74396.5,7.77,-4.53,-9.19,0,*76
1500768454.38,50966,22.25,74398.3,7.77,-4.41,-9.15,0,*7A
1500768455.56,50967,22.25,74400.5,7.79,-4.37,-9.01,0,*71
1500768456.78,50968,22.25,74402.8,7.77,-4.41,-9.01,0,*71
1500768457.96,50969,22.25,74398.0,7.79,-4.37,-8.97,0,*71
1500768459.2,50970,22.25,74400.0,7.77,-4.41,-9.15,0,*7D
1500768460.41,50971,22.25,74398.0,7.77,-4.41,-9.05,0,*7D
1500768461.6,50972,22.25,74398.8,7.79,-4.29,-8.89,0,*7B
1500768462.82,50973,22.25,74400.3,7.77,-4.29,-8.89,0,*74
1500768464.01,50974,22.25,74400.3,7.79,-4.25,-8.89,0,*71
1500768465.19,50975,22.25,74396.8,7.79,-4.25,-8.75,0,*73
1500768466.41,50976,22.25,74396.8,7.77,-4.29,-8.89,0,*71
1500768467.63,50977,22.25,74402.3,7.77,-4.29,-8.93,0,*7B
1500768468.82,50978,22.25,74396.5,7.79,-4.25,-8.89,0,*7D
1500768470.01,50979,22.25,74398.8,7.79,-4.33,-9.01,0,*7A
1500768471.24,50980,22.25,74396.3,7.77,-4.37,-9.15,0,*73
1500768472.44,50981,22.25,74398.8,7.79,-4.33,-9.01,0,*7D
1500768473.63,50982,22.25,74396.8,7.79,-4.25,-8.89,0,*78
1500768474.85,50983,22.25,74396.3,7.77,-4.25,-9.05,0,*72
1500768476.04,50984,22.25,74398.8,7.79,-4.25,-8.97,0,*71
1500768477.27,50985,22.25,74394.8,7.77,-4.37,-9.15,0,*76
1500768478.49,50986,22.25,74398.0,7.77,-4.29,-9.01,0,*7F
1500768479.68,50987,22.25,74398.5,7.79,-4.25,-8.89,0,*7D
1500768480.9,50988,22.25,74394.3,7.77,-4.29,-9.01,0,*71
1500768482.12,50989,22.25,74394.5,7.77,-4.29,-9.05,0,*74
1500768483.31,50990,22.25,74394.0,7.79,-4.25,-9.01,0,*7A
1500768484.53,50991,22.25,74394.0,7.77,-4.25,-9.05,0,*71
1500768485.71,50992,22.25,74398.3,7.79,-4.13,-8.97,0,*73
1500768486.9,50993,22.25,74394.5,7.79,-4.13,-8.97,0,*72
1500768488.12,50994,22.25,74398.0,7.77,-4.25,-9.05,0,*74
1500768489.33,50995,22.25,74396.8,7.77,-4.25,-9.05,0,*75
1500768490.55,50996,22.25,74400.0,7.77,-4.17,-9.05,0,*77
1500768491.77,50997,22.25,74396.3,7.77,-4.25,-9.05,0,*77
1500768492.99,50998,22.25,74392.5,7.77,-4.25,-9.05,0,*78
1500768494.22,50999,22.25,74390.0,7.77,-4.17,-9.15,0,*79
1500768495.41,51000,22.25,74388.3,7.79,-4.13,-8.97,0,*70
1500768496.6,51001,22.25,74388.0,7.79,-4.09,-9.01,0,*74
1500768497.81,51002,22.25,74388.8,7.77,-4.17,-9.05,0,*72
1500768499.03,51003,22.25,74392.5,7.77,-4.25,-9.01,0,*76
1500768500.25,51004,22.25,74396.8,7.79,-4.13,-9.11,0,*7B
1500768501.46,51005,22.25,74392.3,7.79,-4.21,-9.15,0,*7F
1500768502.68,51006,22.25,74392.0,7.79,-4.21,-9.11,0,*78
1500768503.92,51007,22.25,74390.0,7.77,-4.25,-9.15,0,*77
1500768505.14,51008,22.25,74388.5,7.77,-4.25,-9.19,0,*74
1500768506.35,51009,22.25,74392.0,7.79,-4.13,-9.15,0,*72
1500768507.59,51010,22.25,74390.0,7.77,-4.05,-9.15,0,*73
1500768508.82,51011,22.25,74390.5,7.77,-4.17,-9.15,0,*71